Lid_Strength_Index
12 11 10 11 11 11 13 12 14 12 12 10 8 7 7 6 6 6 6 6 6 5 5 4 4 5 6 6 7 7 7 8 8 8 7 7 8 8 10 11 12 13 15 15
14 11 11 13 11 10 11 11 11 11 11 8 7 6 7 6 6 6 7 6 6 5 5 5 5 5 6 7 7 7 8 8 8 9 9 10 10 11 12 13 14 15 16 16
17 12 13 16 13 11 11 10 10 13 9 7 7 7 7 6 6 6 6 6 6 5 5 5 5 5 6 6 7 9 9 11 11 11 11 11 12 13 13 14 14 16 16 16
16 15 20 12 8 9 10 9 8 9 8 7 7 6 5 5 5 5 5 5 5 5 4 4 5 6 6 8 9 10 11 12 12 12 13 13 13 13 14 14 15 16 16 16
17 17 13 11 9 10 11 11 8 8 7 7 6 6 6 5 4 5 4 4 4 6 7 7 7 8 10 11 11 11 12 12 12 13 14 13 14 14 14 15 15 16 16 16
14 18 19 11 8 6 7 14 7 8 8 7 7 11 8 5 5 6 6 7 8 9 9 9 10 10 12 12 13 13 13 13 13 13 14 14 14 15 15 15 15 16 17 16
15 16 14 9 7 6 15 13 9 9 8 8 9 7 6 6 6 7 8 9 9 10 10 11 11 12 13 13 14 14 14 14 14 14 15 14 14 14 15 16 17 17 17 17
14 16 18 8 8 12 9 8 8 8 8 8 7 7 7 7 8 8 9 9 10 11 12 12 13 13 13 15 15 15 15 15 16 15 15 15 15 15 16 16 17 17 18 18
12 13 8 7 8 6 7 8 8 8 7 7 7 7 8 7 9 10 11 11 12 13 14 14 14 13 15 16 15 16 16 17 16 15 15 14 15 16 16 16 16 17 18 18
10 9 8 7 6 6 6 7 6 6 6 6 7 6 7 8 8 10 12 13 14 14 14 15 14 15 15 15 15 15 16 16 15 15 15 15 14 15 15 15 16 16 16 16
10 9 8 7 6 5 5 5 5 5 5 5 5 6 7 8 10 12 13 14 14 14 15 16 15 16 15 14 14 14 15 15 15 15 15 15 14 14 14 14 13 14 14 14
11 8 8 8 6 5 5 6 5 5 6 5 8 8 9 10 11 12 13 14 16 16 17 18 17 17 16 15 14 14 14 14 14 14 14 14 15 14 12 12 12 12 11 12
8 6 6 6 5 4 5 5 5 6 6 7 8 10 11 13 13 14 16 16 17 18 19 18 18 18 18 16 12 12 13 14 14 14 15 15 15 15 16 15 13 13 13 13
6 6 7 6 7 5 6 6 7 8 8 9 10 12 13 15 16 17 18 18 19 19 19 19 20 21 20 16 14 13 13 13 13 14 14 14 14 14 14 15 15 16 14 14
7 6 6 6 6 7 7 8 9 9 9 12 12 13 14 15 17 18 20 20 21 21 21 21 22 22 21 18 17 15 15 15 15 15 14 15 15 14 14 14 15 16 16 15
10 10 9 9 8 8 8 8 9 8 10 12 13 14 16 17 19 21 21 21 19 22 23 23 24 24 22 18 17 17 18 18 16 16 16 16 16 16 16 15 15 15 15 17
15 12 12 12 11 10 10 9 8 9 10 14 16 17 18 20 22 24 25 24 24 25 24 25 25 24 22 20 18 18 19 19 18 18 18 17 16 16 16 16 17 16 18 18
18 18 17 16 16 15 14 10 10 11 13 15 17 19 20 20 22 24 24 25 26 27 27 24 24 23 23 22 20 19 20 20 20 20 19 20 19 19 18 18 18 18 18 17
20 20 19 19 19 19 17 14 14 14 16 17 18 19 21 22 22 23 22 23 24 26 28 26 22 24 24 21 20 20 20 20 21 21 21 21 20 20 20 18 18 18 18 19
22 21 21 22 23 22 20 20 18 19 19 20 22 23 24 25 25 27 28 30 30 29 27 26 25 25 25 24 21 21 21 21 22 22 22 22 21 21 21 22 21 20 20 20
24 23 23 24 24 24 23 21 21 22 22 21 23 25 26 26 25 25 26 27 28 26 25 25 24 24 24 23 23 23 22 23 23 23 22 22 21 22 22 22 22 21 21 21
25 25 25 25 26 26 25 24 24 25 25 25 26 26 27 28 28 28 26 27 26 24 24 24 25 25 24 23 23 23 22 22 22 22 22 22 22 22 22 22 22 22 22 22
26 26 26 27 27 28 28 28 26 26 26 26 26 26 26 26 24 25 27 25 24 23 23 23 24 23 23 23 23 23 23 23 23 23 23 23 23 23 23 23 22 22 23 23
26 26 26 26 26 28 30 29 28 28 28 28 26 25 26 27 27 25 25 26 25 24 24 24 23 23 24 24 24 24 23 23 23 23 24 25 24 24 23 24 24 23 24 24
27 26 26 27 28 29 28 27 28 28 28 28 28 27 26 26 26 26 25 26 24 25 25 24 23 24 25 25 24 24 24 24 24 25 25 25 25 25 25 24 25 24 24 24
27 28 28 28 27 26 26 26 27 27 28 29 28 27 27 26 26 26 26 26 26 26 26 26 26 26 25 25 25 25 25 25 25 25 26 25 25 25 25 25 24 24 24 24
27 26 27 28 28 28 27 27 28 29 28 29 30 29 28 28 27 27 27 27 27 27 27 27 26 27 27 27 27 27 26 26 26 26 27 27 26 26 26 25 25 25 25 24